15 daagse weersverwachting Kristiansund (NO)

  • Overzicht
  • Per uur
  • 15 dagen
  • Extra
  • Vergelijk
  • Kaarten
  • Dagkaart
  • Meer »
  • Info
  • Statistieken
  • Directe link
    Temp 6h Neerslag Wind  
 08:09     17:19    Daglengte: 9:10 Morgen
01:00
24.6 mm
7
07:00
37.4 mm
6
13:00
8.4 mm
3
19:00
25.2 mm
3
 08:05     17:22    Daglengte: 9:17 Donderdag 20 Feb
01:00
 
4
07:00
 
5
13:00
21.8 mm
5
19:00
56.0 mm
5
 08:02     17:25    Daglengte: 9:23 Vrijdag 21 Feb
01:00
10.0 mm
7
07:00
36.3 mm
10
13:00
87.9 mm
9
Locatie info
Region: MÝre og Romsdal
Latitude: 63.1205°N
Longitude: 7.7141°E
1 masl
Postcode: 6509
Temp/Neerslag /Baro Onweer/DauwpuntSneeuw
    Temp Baro 1h Neerslag Dauwpunt Wind UV BewolkingSneeuw  
 08:12     17:16    Daglengte: 9:04 Vandaag
21:00
Voelt als: -0.7°
989.5 hPa 6.4 mm
48%
3.1°
7
Windvlaag: 10.9 km/h
89%12 cm
22:00
Voelt als: -0.5°
989.9 hPa 3.6 mm
75%
3.7°
7
Windvlaag: 10.9 km/h
88%12 cm
23:00
Voelt als: -0.5°
990.3 hPa 5.2 mm
69%
3.5°
8
Windvlaag: 11 km/h
89%12 cm
 08:09     17:19    Daglengte: 9:10 Morgen
00:00
Voelt als: -0.4°
990.6 hPa 5.5 mm
68%
3.3°
7
Windvlaag: 10.3 km/h
90%11 cm
01:00
Voelt als: -0.3°
991.2 hPa 3.9 mm
69%
3.3°
7
Windvlaag: 10.6 km/h
90%11 cm
02:00
Voelt als: -0.4°
991.7 hPa 4.5 mm
72%
3.4°
7
Windvlaag: 9.7 km/h
88%11 cm
03:00
Voelt als: -1.0°
992.4 hPa 5.3 mm
76%
3.1°
8
Windvlaag: 10.9 km/h
90%13 cm
04:00
Voelt als: -0.5°
992.8 hPa 5.9 mm
80%
2.7°
6
Windvlaag: 10.7 km/h
86%14 cm
05:00
Voelt als: -0.6°
993.5 hPa 6.1 mm
82%
2.9°
6
Windvlaag: 7.5 km/h
88%14 cm
06:00
Voelt als: -1.3°
994.4 hPa 6.6 mm
82%
2.6°
7
Windvlaag: 7.3 km/h
87%14 cm
07:00
Voelt als: -1.2°
995.6 hPa 9.0 mm
82%
1.7°
6
Windvlaag: 8.3 km/h
72%14 cm
08:00
Voelt als: -1.6°
996.8 hPa 8.4 mm
82%
0.5°
5
Windvlaag: 5.5 km/h
43%14 cm
09:00
Voelt als: -1.0°
997.8 hPa
82%
0.1°
4
Windvlaag: 3.3 km/h
39%14 cm
10:00
Voelt als: -0.0°
998.7 hPa
82%
-0.3°
3
Windvlaag: 2.6 km/h
34%14 cm
11:00
Voelt als: 0.6°
999.5 hPa
82%
-0.9°
3
Windvlaag: 2.4 km/h
34%14 cm
12:00
Voelt als: 1.2°
1000.3 hPa
82%
-1.0°
2
Windvlaag: 2.8 km/h
38%13 cm
13:00
Voelt als: 0.8°
1000.8 hPa
80%
-1.3°
3
Windvlaag: 3.1 km/h
34%13 cm
14:00
Voelt als: 0.6°
1001.3 hPa
78%
-1.8°
3
Windvlaag: 3.7 km/h
35%13 cm
15:00
Voelt als: 0.2°
1001.7 hPa 8.7 mm
82%
-2.2°
3
Windvlaag: 4.3 km/h
30%12 cm
16:00
Voelt als: 0.1°
1001.9 hPa 8.5 mm
82%
-2.3°
3
Windvlaag: 4.6 km/h
26%12 cm
17:00
Voelt als: -0.2°
1001.9 hPa 8.0 mm
75%
-1.9°
3
Windvlaag: 4.3 km/h
17%12 cm
18:00
Voelt als: -0.9°
1001.8 hPa
32%
-1.3°
3
Windvlaag: 4.3 km/h
15%12 cm
19:00
Voelt als: -0.7°
1001.5 hPa
20%
-1.1°
3
Windvlaag: 4.4 km/h
27%12 cm
20:00
Voelt als: -1.1°
1001.2 hPa
14%
-0.8°
4
Windvlaag: 5.4 km/h
13%12 cm
21:00
Voelt als: -0.9°
1000.6 hPa
14%
-0.7°
4
Windvlaag: 5.4 km/h
26%12 cm
22:00
Voelt als: -1.0°
999.9 hPa
14%
-0.6°
4
Windvlaag: 6.1 km/h
7%12 cm
23:00
Voelt als: -1.0°
999.3 hPa
14%
-1.0°
4
Windvlaag: 6.2 km/h
38%12 cm
 08:05     17:22    Daglengte: 9:17 Donderdag 20 Feb
00:00
Voelt als: -0.9°
998.4 hPa
15%
-1.6°
4
Windvlaag: 5.8 km/h
51%12 cm
01:00
Voelt als: -0.9°
997.3 hPa
14%
-2.2°
4
Windvlaag: 5.8 km/h
78%12 cm
02:00
Voelt als: -0.9°
995.9 hPa
14%
-2.4°
5
Windvlaag: 6.7 km/h
81%12 cm
03:00
Voelt als: -0.6°
994.7 hPa
14%
-3.2°
5
Windvlaag: 6.9 km/h
90%12 cm
04:00
Voelt als: -0.4°
993.2 hPa
14%
-3.8°
5
Windvlaag: 6.7 km/h
90%12 cm
05:00
Voelt als: 0.2°
991.9 hPa
14%
-4.0°
5
Windvlaag: 6.6 km/h
91%12 cm
06:00
Voelt als: 0.8°
990.6 hPa
22%
-4.2°
4
Windvlaag: 6.6 km/h
91%12 cm
07:00
Voelt als: 0.9°
989.2 hPa
16%
-1.8°
5
Windvlaag: 7.1 km/h
91%12 cm
08:00
Voelt als: 0.9°
988.2 hPa
24%
-0.7°
6
Windvlaag: 8 km/h
90%12 cm
09:00
Voelt als: 1.2°
987.6 hPa 7.9 mm
63%
-0.4°
5
Windvlaag: 8.3 km/h
90%12 cm
10:00
Voelt als: 2.1°
987.5 hPa 5.7 mm
76%
0.4°
4
Windvlaag: 8.5 km/h
91%12 cm
11:00
Voelt als: 2.7°
987.1 hPa
75%
1.4°
4
Windvlaag: 6.5 km/h
87%11 cm
12:00
Voelt als: 2.4°
986.4 hPa
74%
1.7°
5
Windvlaag: 7.6 km/h
88%11 cm
13:00
Voelt als: 2.5°
985.4 hPa 8.1 mm
74%
2.1°
5
Windvlaag: 8 km/h
90%11 cm
14:00
Voelt als: 2.9°
984.5 hPa 8.4 mm
67%
1.8°
4
Windvlaag: 6.9 km/h
91%11 cm
15:00
Voelt als: 4.0°
983.5 hPa 6.4 mm
81%
2.5°
2
Windvlaag: 4.7 km/h
91%10 cm
16:00
Voelt als: 2.9°
982.5 hPa 9.2 mm
100%
3.2°
2
Windvlaag: 3.3 km/h
100%10 cm
17:00
Voelt als: -1.2°
982.0 hPa 10.7 mm
100%
2.7°
7
Windvlaag: 10.2 km/h
100%10 cm
18:00
Voelt als: -2.3°
981.6 hPa 11.1 mm
100%
2.1°
6
Windvlaag: 9.8 km/h
88%10 cm
19:00
Voelt als: -1.9°
981.4 hPa 10.2 mm
100%
2.2°
5
Windvlaag: 9.2 km/h
87%10 cm
20:00
Voelt als: -2.3°
981.4 hPa 10.0 mm
100%
1.6°
6
Windvlaag: 8.8 km/h
90%10 cm
21:00
Voelt als: -1.8°
981.4 hPa
30%
1.8°
6
Windvlaag: 8.5 km/h
63%10 cm
22:00
Voelt als: -1.7°
981.2 hPa
30%
0.5°
6
Windvlaag: 8.6 km/h
68%10 cm
23:00
Voelt als: -1.8°
981.0 hPa
22%
-0.4°
6
Windvlaag: 9.1 km/h
31%10 cm
 08:02     17:25    Daglengte: 9:23 Vrijdag 21 Feb
00:00
Voelt als: -1.9°
980.9 hPa
21%
-1.2°
6
Windvlaag: 10.2 km/h
11%10 cm
01:00
Voelt als: -1.1°
980.5 hPa
21%
0.7°
7
Windvlaag: 6 km/h
8%10 cm
02:00
Voelt als: -1.2°
980.0 hPa
21%
0.6°
8
Windvlaag: 13.6 km/h
44%10 cm
03:00
Voelt als: -1.1°
979.5 hPa
21%
0.6°
8
Windvlaag: 14.4 km/h
61%10 cm
04:00
Voelt als: -1.2°
979.0 hPa
25%
0.7°
8
Windvlaag: 15.2 km/h
63%10 cm
05:00
Voelt als: -1.3°
978.5 hPa 16.3 mm
95%
0.7°
9
Windvlaag: 14.4 km/h
73%10 cm
06:00
Voelt als: -1.5°
978.3 hPa 10.3 mm
100%
0.6°
10
Windvlaag: 14.3 km/h
74%10 cm
07:00
Voelt als: -1.4°
978.1 hPa 9.8 mm
96%
0.8°
10
Windvlaag: 7.2 km/h
79%10 cm
08:00
Voelt als: -0.8°
978.4 hPa 10.1 mm
100%
1.3°
10
Windvlaag: 13.7 km/h
83%10 cm
09:00
Voelt als: -0.4°
978.7 hPa 17.0 mm
87%
1.7°
10
Windvlaag: 14.7 km/h
87%10 cm
10:00
Voelt als: -0.1°
979.0 hPa 16.8 mm
100%
1.9°
12
Windvlaag: 15.1 km/h
82%9 cm
11:00
Voelt als: 0.4°
979.2 hPa 16.8 mm
100%
2.1°
12
Windvlaag: 15.5 km/h
78%9 cm
12:00
Voelt als: 1.3°
979.3 hPa 16.9 mm
82%
2.4°
11
Windvlaag: 15.6 km/h
95%8 cm
13:00
Voelt als: 2.0°
979.8 hPa 10.3 mm
100%
2.5°
9
Windvlaag: 7.2 km/h
96%8 cm
14:00
Voelt als: 2.0°
978.7 hPa 17.3 mm
100%
2.6°
8
Windvlaag: 17.5 km/h
95%8 cm warningclass
15:00
Voelt als: 1.9°
978.3 hPa 17.8 mm
100%
2.8°
8
Windvlaag: 14.8 km/h
95%7 cm
16:00
Voelt als: 1.6°
977.7 hPa 17.7 mm
100%
3.0°
9
Windvlaag: 12.2 km/h
98%7 cm
17:00
Voelt als: 1.4°
977.2 hPa 18.0 mm
100%
3.0°
8
Windvlaag: 13.4 km/h
100%7 cm
18:00
Voelt als: 1.0°
976.8 hPa 17.8 mm
100%
3.2°
9
Windvlaag: 16.8 km/h
99%7 cm
19:00
Voelt als: 0.9°
976.2 hPa 17.8 mm
100%
3.3°
9
Windvlaag: 2.7 km/h
99%7 cm
Temp/Neerslag /Baro Onweer/DauwpuntSneeuw
    Temp Baro Neerslag Dauwpunt Wind BewolkingSneeuw  
 08:12     17:16    Daglengte: 9:04 Vandaag
22:00
Voelt als: -0.5°
989.9 hPa 10.0 mm 3.7°
7
88%12 cm
 08:09     17:19    Daglengte: 9:10 Morgen
01:00
Voelt als: -0.3°
991.2 hPa 14.7 mm 3.3°
7
90%11 cm
04:00
Voelt als: -0.5°
992.8 hPa 15.7 mm 2.7°
6
86%14 cm
07:00
Voelt als: -1.2°
995.6 hPa 21.7 mm 1.7°
6
72%14 cm
10:00
Voelt als: -0.0°
998.7 hPa 8.4 mm -0.3°
3
34%14 cm
13:00
Voelt als: 0.8°
1000.8 hPa   -1.3°
3
34%13 cm
16:00
Voelt als: 0.1°
1001.9 hPa 17.2 mm -2.3°
3
26%12 cm
19:00
Voelt als: -0.7°
1001.5 hPa 8.0 mm -1.1°
3
27%12 cm
22:00
Voelt als: -1.0°
999.9 hPa   -0.6°
4
7%12 cm
 08:05     17:22    Daglengte: 9:17 Donderdag 20 Feb
01:00
Voelt als: -0.9°
997.3 hPa   -2.2°
4
78%12 cm
04:00
Voelt als: -0.4°
993.2 hPa   -3.8°
5
90%12 cm
07:00
Voelt als: 0.9°
989.2 hPa   -1.8°
5
91%12 cm
10:00
Voelt als: 2.1°
987.5 hPa 13.7 mm 0.4°
4
91%12 cm
13:00
Voelt als: 2.5°
985.4 hPa 8.1 mm 2.1°
5
90%11 cm
16:00
Voelt als: 2.9°
982.5 hPa 24.0 mm 3.2°
2
100%10 cm
19:00
Voelt als: -1.9°
981.4 hPa 32.0 mm 2.2°
5
87%10 cm
22:00
Voelt als: -1.7°
981.2 hPa 10.0 mm 0.5°
6
68%10 cm
 08:02     17:25    Daglengte: 9:23 Vrijdag 21 Feb
01:00
Voelt als: -1.1°
980.5 hPa   0.7°
7
8%10 cm
04:00
Voelt als: -1.2°
979.0 hPa   0.7°
8
63%10 cm
07:00
Voelt als: -1.4°
978.1 hPa 36.3 mm 0.8°
10
79%10 cm
10:00
Voelt als: -0.1°
979.0 hPa 43.8 mm 1.9°
12
82%9 cm
13:00
Voelt als: 2.0°
979.8 hPa 44.1 mm 2.5°
9
96%8 cm
16:00
Voelt als: 1.6°
977.7 hPa 52.8 mm 3.0°
9
98%7 cm
19:00
Voelt als: 0.9°
976.2 hPa 53.5 mm 3.3°
9
99%7 cm
22:00
Voelt als: -0.4°
974.3 hPa 58.3 mm 3.2°
12
88%
 07:59     17:28    Daglengte: 9:29 Zaterdag 22 Feb
01:00
Voelt als: -0.8°
973.4 hPa 63.0 mm 3.2°
14
86%
04:00
Voelt als: -1.2°
972.6 hPa 63.9 mm 2.5°
13
86%
07:00
Voelt als: -1.5°
971.7 hPa 64.8 mm 2.0°
12
86%
10:00
Voelt als: -1.4°
972.3 hPa 65.9 mm 2.2°
12
87%
13:00
Voelt als: -1.1°
972.9 hPa 66.9 mm 2.2°
13
87%
16:00
Voelt als: -0.9°
973.5 hPa 67.4 mm 2.4°
11
87%
19:00
Voelt als: -0.7°
974.2 hPa 68.4 mm 2.7°
10
87%
22:00
Voelt als: -0.8°
977.0 hPa 69.4 mm 2.6°
11
80%
 07:56     17:31    Daglengte: 9:35 Zondag 23 Feb
01:00
Voelt als: -1.0°
979.9 hPa 69.8 mm 2.7°
11
72%
04:00
Voelt als: -1.5°
983.1 hPa 71.0 mm 2.1°
10
64%
07:00
Voelt als: -1.7°
986.3 hPa 77.2 mm 1.5°
9
56%
10:00
Voelt als: -1.1°
987.7 hPa 78.2 mm 1.5°
8
67%
13:00
Voelt als: -0.7°
989.1 hPa 79.7 mm 1.7°
8
77%
16:00
Voelt als: -0.9°
991.1 hPa 82.7 mm 1.7°
8
78%
19:00
Voelt als: -1.5°
993.2 hPa 86.1 mm 1.6°
8
78%
22:00
Voelt als: -1.7°
995.4 hPa 87.1 mm 1.0°
8
77%
 07:52     17:34    Daglengte: 9:42 Maandag 24 Feb
01:00
Voelt als: -2.0°
997.5 hPa 88.1 mm 0.6°
9
75%
04:00
Voelt als: -2.1°
998.8 hPa 88.3 mm 0.2°
8
75%
07:00
Voelt als: -2.3°
999.9 hPa 88.6 mm -0.4°
7
75%
10:00
Voelt als: -1.7°
998.7 hPa 91.1 mm -0.1°
7
68%
13:00
Voelt als: -1.1°
997.5 hPa 91.6 mm -0.3°
7
62%
16:00
Voelt als: -0.7°
997.1 hPa 91.6 mm -0.6°
5
77%
19:00
Voelt als: -0.5°
996.4 hPa 91.6 mm -0.9°
4
91%
22:00
Voelt als: -0.8°
996.3 hPa 92.0 mm -1.2°
4
90%
 07:49     17:37    Daglengte: 9:48 Dinsdag 25 Feb
01:00
Voelt als: -1.2°
996.4 hPa 92.2 mm -1.7°
4
90%
04:00
Voelt als: -2.1°
993.5 hPa 92.2 mm -1.9°
4
91%
07:00
Voelt als: -2.8°
990.6 hPa 92.2 mm -2.1°
4
92%
10:00
Voelt als: -1.4°
991.6 hPa 92.2 mm -2.1°
4
92%
13:00
Voelt als: 0.4°
992.7 hPa 92.3 mm -2.0°
3
92%
16:00
Voelt als: -0.7°
990.2 hPa 93.0 mm -1.0°
5
91%
19:00
Voelt als: -1.9°
988.0 hPa 190.2 mm -0.1°
7
90%
 07:46     17:40    Daglengte: 9:54 Woensdag 26 Feb
01:00
Voelt als: -1.0°
991.5 hPa 201.9 mm -0.9°
4
91%
07:00
Voelt als: -2.0°
993.0 hPa 226.3 mm -1.6°
3
86%
13:00
Voelt als: -0.3°
992.0 hPa 233.1 mm -2.0°
4
92%
19:00
Voelt als: -2.2°
993.7 hPa 235.7 mm -2.5°
5
92%
 07:42     17:43    Daglengte: 10:01 Donderdag 27 Feb
01:00
Voelt als: -3.2°
994.1 hPa 239.2 mm -1.7°
4
87%
07:00
Voelt als: -4.1°
992.6 hPa 242.1 mm -2.4°
4
91%
13:00
Voelt als: -0.9°
989.8 hPa 242.6 mm -3.7°
3
91%
19:00
Voelt als: -1.2°
985.3 hPa 242.9 mm -3.1°
3
92%
 07:39     17:46    Daglengte: 10:07 Vrijdag 28 Feb
01:00
Voelt als: -6.6°
972.2 hPa 243.4 mm -5.6°
9
1%
07:00
Voelt als: -2.3°
956.6 hPa 243.5 mm -2.7°
8
1%
13:00
Voelt als: 0.3°
954.2 hPa 243.9 mm 1.0°
6
1%
19:00
-2°
Voelt als: -2.2°
992.8 hPa 1.1 mm -4.4°
1
59%
 07:36     17:48    Daglengte: 10:12 Zaterdag 29 Feb
01:00
-2°
Voelt als: -3.0°
993.8 hPa 1.1 mm -4.6°
1
68%
07:00
-2°
Voelt als: -3.0°
993.8 hPa 1.4 mm -4.2°
1
80%
13:00
Voelt als: -2.1°
993.9 hPa 1.1 mm -2.0°
2
71%
19:00
-1°
Voelt als: -4.4°
995.6 hPa 1.6 mm -3.5°
3
72%
 07:32     17:51    Daglengte: 10:19 Zondag 01 Maa
01:00
-2°
Voelt als: -5.5°
997.3 hPa 1.0 mm -4.6°
3
65%
07:00
-3°
Voelt als: -6.1°
997.8 hPa 0.6 mm -5.2°
3
61%
13:00
Voelt als: -2.4°
997.2 hPa 0.5 mm -2.1°
2
65%
19:00
-1°
Voelt als: -3.5°
997.6 hPa 1.3 mm -3.0°
2
70%
 07:29     17:54    Daglengte: 10:25 Maandag 02 Maa
01:00
-0°
Voelt als: -3.5°
999.2 hPa 1.6 mm -2.4°
3
78%
07:00
-1°
Voelt als: -3.8°
1000.3 hPa 1.8 mm -2.6°
3
75%
13:00
Voelt als: -1.9°
1001.7 hPa 1.5 mm -0.5°
3
73%
19:00
-0°
Voelt als: -4.1°
1003.6 hPa 1.0 mm -2.4°
3
64%
 07:26     17:57    Daglengte: 10:31 Dinsdag 03 Maa
01:00
-0°
Voelt als: -3.6°
1004.9 hPa 1.0 mm -2.5°
3
68%
07:00
-0°
Voelt als: -3.8°
1004.5 hPa 1.0 mm -2.3°
3
64%
13:00
Voelt als: -0.4°
1003.9 hPa 1.3 mm 0.4°
2
58%
19:00
Voelt als: -2.4°
1003.6 hPa 1.8 mm -1.2°
3
67%
 07:22     18:00    Daglengte: 10:38 Woensdag 04 Maa
01:00
Voelt als: -3.7°
1005.0 hPa 1.6 mm -1.4°
4
66%
07:00
Voelt als: -3.8°
1005.9 hPa 1.1 mm -1.8°
4
61%
13:00
Voelt als: -0.7°
1005.7 hPa 1.1 mm 0.8°
4
58%
19:00
Voelt als: -1.4°
1005.4 hPa 1.4 mm -1.1°
2
63%
  CAPE Lifted Index Hail Supercell Tornado SRH 3km CL BTM PRES CL TOP PRES Swiss DWD icon SMHI TS
 08:12     17:16    Daglengte: 9:04 Vandaag
21:00 18 J/kg -0.5 K 0 % 0 % 0 % 0 m²/s² 0 0 0.37 80
22:00 63 J/kg -0.2 K 0 % 0 % 0 % 0 m²/s² 0 0 0.37 3
23:00 108 J/kg -0.1 K 0 % 0 % 0 % 0 m²/s² 0 0 0.47 3
 08:09     17:19    Daglengte: 9:10 Morgen
00:00 27 J/kg -0.2 K 0 % 0 % 0 % 0 m²/s² 0 0 0.34 3
01:00 2 J/kg 0.3 K 0 % 0 % 0 % 0 m²/s² 0 0 0.87 61
02:00 4 J/kg 0.6 K 0 % 0 % 0 % 0 m²/s² 0 0 1.05 61
03:00 1 J/kg 0.4 K 0 % 0 % 0 % 0 m²/s² 0 0 0.85 80
04:00 0 J/kg 0.4 K 0 % 0 % 0 % 0 m²/s² 0 0 0.88 80
05:00 15 J/kg 0.9 K 0 % 0 % 0 % 0 m²/s² 0 0 1.89 80
06:00 2 J/kg 1.6 K 0 % 0 % 0 % 0 m²/s² 0 0 2.77 80
07:00 1 J/kg 2.2 K 0 % 0 % 0 % 0 m²/s² 0 0 3.01 80
08:00 1 J/kg 3.0 K 0 % 0 % 0 % 0 m²/s² 0 0 3.9 80
09:00 1 J/kg 3.6 K 0 % 0 % 0 % 0 m²/s² 0 0 4.59 80
10:00 1 J/kg 4.8 K 0 % 0 % 0 % 0 m²/s² 0 0 5.61 80
11:00 0 J/kg 5.8 K 0 % 0 % 0 % 0 m²/s² 0 0 6.4 61
12:00 1 J/kg 6.1 K 0 % 0 % 0 % 0 m²/s² 0 0 6.88 61
13:00 2 J/kg 6.2 K 0 % 0 % 0 % 0 m²/s² 0 0 7.52 61
14:00 2 J/kg 5.8 K 0 % 0 % 0 % 0 m²/s² 0 0 7.42 61
15:00 2 J/kg 5.5 K 0 % 0 % 0 % 0 m²/s² 0 0 7.36 61
16:00 1 J/kg 5.4 K 0 % 0 % 0 % 0 m²/s² 0 0 7.38 55
17:00 0 J/kg 5.7 K 0 % 0 % 0 % 0 m²/s² 0 0 8.13 61
18:00 0 J/kg 6.2 K 0 % 0 % 0 % 0 m²/s² 0 0 8.99 3
19:00 0 J/kg 6.6 K 0 % 0 % 0 % 0 m²/s² 0 0 10.41 2
20:00 0 J/kg 7.1 K 0 % 0 % 0 % 0 m²/s² 0 0 11.33 2
21:00 0 J/kg 7.5 K 0 % 0 % 0 % 0 m²/s² 0 0 11.73 1
22:00 0 J/kg 8.3 K 0 % 0 % 0 % 0 m²/s² 0 0 13.55 0
23:00 0 J/kg 9.4 K 0 % 0 % 0 % 0 m²/s² 0 0 14.23 0
 08:05     17:22    Daglengte: 9:17 Donderdag 20 Feb
00:00 0 J/kg 11.1 K 0 % 0 % 0 % 0 m²/s² 0 0 15.93 1
01:00 0 J/kg 12.6 K 0 % 0 % 0 % 0 m²/s² 0 0 17.88 3
02:00 0 J/kg 13.0 K 0 % 0 % 0 % 0 m²/s² 0 0 17.47 3
03:00 0 J/kg 12.9 K 0 % 0 % 0 % 0 m²/s² 0 0 17.88 3
04:00 0 J/kg 11.2 K 0 % 0 % 0 % 0 m²/s² 0 0 13.48 3
05:00 0 J/kg 9.0 K 0 % 0 % 0 % 0 m²/s² 0 0 9.42 3
06:00 0 J/kg 8.3 K 0 % 0 % 0 % 0 m²/s² 0 0 8.69 3
07:00 0 J/kg 6.5 K 0 % 0 % 0 % 0 m²/s² 0 0 6.86 3
08:00 0 J/kg 5.8 K 0 % 0 % 0 % 0 m²/s² 0 0 6.28 3
09:00 0 J/kg 5.5 K 0 % 0 % 0 % 0 m²/s² 0 0 7.54 3
10:00 0 J/kg 5.6 K 0 % 0 % 0 % 0 m²/s² 0 0 6.8 61
11:00 0 J/kg 5.7 K 0 % 0 % 0 % 0 m²/s² 0 0 6.12 3
12:00 0 J/kg 6.0 K 0 % 0 % 0 % 0 m²/s² 0 0 6.42 61
13:00 0 J/kg 6.1 K 0 % 0 % 0 % 0 m²/s² 0 0 6.61 61
14:00 0 J/kg 6.4 K 0 % 0 % 0 % 0 m²/s² 0 0 6.88 3
15:00 0 J/kg 7.3 K 0 % 0 % 0 % 0 m²/s² 0 0 7.72 61
16:00 1 J/kg 7.0 K 0 % 0 % 0 % 0 m²/s² 0 0 7.51 61
17:00 0 J/kg 6.8 K 0 % 0 % 0 % 0 m²/s² 0 0 7.37 61
18:00 0 J/kg 6.0 K 0 % 0 % 0 % 0 m²/s² 0 0 6.51 61
19:00 7 J/kg 6.1 K 0 % 0 % 0 % 0 m²/s² 0 0 6.7 61
20:00 2 J/kg 5.7 K 0 % 0 % 0 % 0 m²/s² 0 0 6.45 61
21:00 7 J/kg 4.8 K 0 % 0 % 0 % 0 m²/s² 0 0 5.43 3
22:00 54 J/kg 4.2 K 0 % 0 % 0 % 0 m²/s² 0 0 5.58 1
23:00 27 J/kg 4.0 K 0 % 0 % 0 % 0 m²/s² 0 0 7.96 0
 08:02     17:25    Daglengte: 9:23 Vrijdag 21 Feb
00:00 0 J/kg 3.5 K 0 % 0 % 0 % 0 m²/s² 0 0 7.13 1
01:00 0 J/kg 3.1 K 0 % 0 % 0 % 0 m²/s² 0 0 5.5 1
02:00 0 J/kg 2.6 K 0 % 0 % 0 % 0 m²/s² 0 0 5.12 1
03:00 0 J/kg 1.6 K 0 % 0 % 0 % 0 m²/s² 0 0 4.18 3
04:00 0 J/kg 2.1 K 0 % 0 % 0 % 0 m²/s² 0 0 5.58 3
05:00 0 J/kg 3.4 K 0 % 0 % 0 % 0 m²/s² 0 0 7.09 3
06:00 0 J/kg 0.6 K 0 % 0 % 0 % 0 m²/s² 0 0 1.89 61
07:00 0 J/kg 0.1 K 0 % 0 % 0 % 0 m²/s² 0 0 0.97 3
08:00 0 J/kg 0.1 K 0 % 0 % 0 % 0 m²/s² 0 0 1.42 3
09:00 3 J/kg -0.8 K 0 % 0 % 0 % 0 m²/s² 0 0 -0.29 3
10:00 76 J/kg 0.1 K 0 % 0 % 0 % 0 m²/s² 0 0 0.76 80
11:00 58 J/kg 1.3 K 0 % 0 % 0 % 0 m²/s² 0 0 2.44 2
12:00 40 J/kg 2.4 K 0 % 0 % 0 % 0 m²/s² 0 0 3.9 3
13:00 43 J/kg 3.4 K 0 % 0 % 0 % 0 m²/s² 0 0 5.71 61
14:00 70 J/kg 4.8 K 0 % 0 % 0 % 0 m²/s² 0 0 8.85 61
15:00 42 J/kg 5.3 K 0 % 0 % 0 % 0 m²/s² 0 0 10.67 61
16:00 1 J/kg 5.6 K 0 % 0 % 0 % 0 m²/s² 0 0 6.02 61
17:00 0 J/kg 3.7 K 0 % 0 % 0 % 0 m²/s² 0 0 4.09 61
18:00 0 J/kg 2.3 K 0 % 0 % 0 % 0 m²/s² 0 0 2.81 61
19:00 0 J/kg 1.7 K 0 % 0 % 0 % 0 m²/s² 0 0 4.64 61
Temp Baro Wind Neerslag
  EWN Forecast EWN WRFDA DWD ICON FMI HIRLAM MET Norway GFS
 08:12     17:16    Daglengte: 9:04 Vandaag
22:00 4.3° 989.9 hPa 7.2 m/s 10.0 mm 3.6° 987.4 hPa 5.1 m/s 45.2 mm 4.5° 990.1 hPa 8.8 m/s 4.9 mm 5.4° 990.0 hPa 6.9 m/s 0.0 mm 2.6° 990.1 hPa 6.5 m/s 4.5° 990.1 hPa 8.4 m/s
 08:09     17:19    Daglengte: 9:10 Morgen
01:00 4.3° 991.2 hPa 6.8 m/s 14.7 mm 3.2° 988.6 hPa 5.4 m/s 71.5 mm 4.6° 991.3 hPa 8.2 m/s 0.3 mm 5.1° 991.4 hPa 6.4 m/s 0.0 mm 2.9° 991.3 hPa 6.2 m/s 4.4° 992.1 hPa 7.4 m/s
04:00 3.9° 992.8 hPa 6.1 m/s 15.7 mm 2.1° 990.2 hPa 5.4 m/s 98.5 mm 4.2° 993.1 hPa 8.2 m/s 2.7 mm 5.1° 993.0 hPa 4.3 m/s 0.0 mm 2.5° 992.7 hPa 5.7 m/s 3.9° 993.9 hPa 5.7 m/s
07:00 3.4° 995.6 hPa 6.2 m/s 21.7 mm 1.8° 992.6 hPa 2.7 m/s 115.0 mm 3.8° 995.5 hPa 7.3 m/s 3.2 mm 3.9° 996.0 hPa 5.7 m/s 0.0 mm 2.1° 995.9 hPa 7.3 m/s 3.0° 996.2 hPa 0.8 m/s
10:00 2.8° 998.7 hPa 2.9 m/s 8.4 mm 0.7° 995.4 hPa 0.8 m/s 116.2 mm 3.6° 998.0 hPa 1.5 m/s 2.8 mm 4.2° 999.0 hPa 3.4 m/s 0.0 mm 2.1° 999.5 hPa 3.0 m/s 2.0° 999.1 hPa 1.8 m/s
13:00 3.3° 1000.8 hPa 2.6 m/s 0.0 mm 1.8° 997.4 hPa 1.6 m/s 116.5 mm 2.3° 1000.5 hPa 2.8 m/s 1.7 mm 4.7° 1001.1 hPa 3.3 m/s 0.0 mm 3.5° 1001.7 hPa 2.7 m/s 1.7° 1000.8 hPa 2.5 m/s
16:00 2.9° 1001.9 hPa 2.9 m/s 17.2 mm 2.3° 998.5 hPa 1.4 m/s 116.7 mm 2.1° 1001.2 hPa 2.2 m/s 4.5 mm 4.9° 1002.5 hPa 3.7 m/s 0.0 mm 3.4° 1002.5 hPa 3.0 m/s 2.4° 1002.1 hPa 3.6 m/s
19:00 2.6° 1001.5 hPa 3.4 m/s 8.0 mm 1.1° 998.2 hPa 5.0 m/s 116.7 mm 2.9° 1000.7 hPa 2.5 m/s 0.2 mm 4.5° 1002.7 hPa 3.4 m/s 0.0 mm 1.2° 1002.3 hPa 3.1 m/s 3.3° 1001.9 hPa 4.7 m/s
22:00 2.7° 999.9 hPa 4.1 m/s 0.0 mm -0.9° 997.5 hPa 5.7 m/s 116.7 mm 3.1° 999.1 hPa 2.9 m/s 0.0 mm 4.9° 1001.7 hPa 2.4 m/s 0.0 mm 1.2° 1000.4 hPa 4.6 m/s 2.7° 1001.0 hPa 5.1 m/s
 08:05     17:22    Daglengte: 9:17 Donderdag 20 Feb
01:00 2.9° 997.3 hPa 4.2 m/s 0.0 mm -0.0° 996.0 hPa 6.4 m/s 116.7 mm 3.1° 996.8 hPa 2.8 m/s 0.0 mm 5.5° 1000.0 hPa 3.1 m/s 0.0 mm 1.3° 997.6 hPa 4.4 m/s 2.0° 999.3 hPa 6.5 m/s
04:00 3.6° 993.2 hPa 5.1 m/s 0.0 mm 1.9° 991.7 hPa 7.9 m/s 116.7 mm 3.8° 992.7 hPa 3.8 m/s 0.0 mm 5.5° 996.5 hPa 5.9 m/s 0.0 mm 2.5° 993.5 hPa 4.5 m/s 1.9° 995.2 hPa 6.7 m/s
07:00 4.6° 989.2 hPa 4.9 m/s 0.0 mm 3.4° 988.2 hPa 4.9 m/s 116.8 mm 4.7° 988.4 hPa 3.8 m/s 0.0 mm 6.2° 991.9 hPa 6.2 m/s 0.0 mm 3.1° 989.8 hPa 5.3 m/s 2.0° 992.3 hPa 8.4 m/s
10:00 5.3° 987.5 hPa 4.2 m/s 13.7 mm 4.0° 987.5 hPa 5.9 m/s 116.8 mm 5.1° 986.8 hPa 2.8 m/s 0.1 mm 6.3° 989.1 hPa 5.3 m/s 0.0 mm 5.0° 987.6 hPa 2.5 m/s 1.6° 990.7 hPa 7.1 m/s
13:00 5.9° 985.4 hPa 4.9 m/s 8.1 mm 3.9° 984.8 hPa 3.6 m/s 118.0 mm 5.5° 984.4 hPa 2.1 m/s 0.5 mm 6.8° 986.5 hPa 4.6 m/s 0.0 mm 5.9° 985.7 hPa 5.1 m/s 2.7° 988.1 hPa 5.8 m/s
16:00 4.7° 982.5 hPa 2.2 m/s 24.0 mm 3.3° 979.4 hPa 0.8 m/s 126.9 mm 4.9° 981.0 hPa 1.9 m/s 1.1 mm 4.7° 982.8 hPa 1.0 m/s 2.1° 982.1 hPa 3.3 m/s
19:00 2.3° 981.4 hPa 4.9 m/s 32.0 mm 2.4° 975.4 hPa 5.8 m/s 141.0 mm 2.2° 981.9 hPa 4.7 m/s 4.3 mm 1.1° 981.7 hPa 4.8 m/s 0.7° 978.9 hPa 6.0 m/s
22:00 2.9° 981.2 hPa 5.9 m/s 10.0 mm 2.5° 978.2 hPa 7.8 m/s 144.2 mm 3.9° 981.1 hPa 4.9 m/s 0.2 mm 2.1° 981.2 hPa 5.6 m/s 3.1° 981.1 hPa 11.1 m/s
 08:02     17:25    Daglengte: 9:23 Vrijdag 21 Feb
01:00 3.8° 980.5 hPa 7.1 m/s 0.0 mm 0.9° 978.1 hPa 8.9 m/s 144.8 mm 3.9° 980.8 hPa 3.9 m/s 0.0 mm 3.8° 980.3 hPa 7.2 m/s 3.7° 982.8 hPa 10.4 m/s
04:00 4.0° 979.0 hPa 8.3 m/s 0.0 mm 0.9° 977.1 hPa 9.1 m/s 144.8 mm 4.3° 979.5 hPa 4.5 m/s 0.0 mm 4.0° 978.8 hPa 8.2 m/s 2.7° 982.6 hPa 7.0 m/s
07:00 4.3° 978.1 hPa 10.2 m/s 36.3 mm 2.4° 975.2 hPa 8.7 m/s 144.8 mm 4.2° 980.7 hPa 9.4 m/s 0.5 mm 4.2° 977.2 hPa 9.2 m/s 2.2° 980.8 hPa 8.2 m/s
10:00 5.5° 979.0 hPa 11.9 m/s 43.8 mm 4.2° 975.2 hPa 12.2 m/s 147.8 mm 5.0° 982.2 hPa 11.8 m/s 0.3 mm 5.7° 977.8 hPa 8.8 m/s 4.2° 981.2 hPa 12.0 m/s
13:00 6.7° 979.8 hPa 9.1 m/s 44.1 mm 4.7° 979.4 hPa 13.1 m/s 150.8 mm 6.2° 981.1 hPa 8.1 m/s 0.5 mm 7.1° 978.4 hPa 8.3 m/s 4.4° 981.8 hPa 13.7 m/s
16:00 6.2° 977.7 hPa 8.5 m/s 52.8 mm 4.1° 980.5 hPa 6.7 m/s 152.0 mm 6.7° 977.5 hPa 8.6 m/s 3.3 mm 6.4° 977.2 hPa 8.8 m/s 4.0° 979.1 hPa 9.1 m/s
19:00 5.8° 976.2 hPa 9.3 m/s 53.5 mm 4.7° 976.3 hPa 11.9 m/s 155.6 mm 6.8° 976.3 hPa 7.9 m/s 2.5 mm 5.8° 976.1 hPa 9.3 m/s 5.5° 976.6 hPa 9.1 m/s
22:00 5.4° 974.3 hPa 12.0 m/s 58.3 mm 5.5° 974.3 hPa 12.3 m/s 3.6° 974.2 hPa 8.2 m/s 58.3 mm
 07:59     17:28    Daglengte: 9:29 Zaterdag 22 Feb
01:00 5.4° 973.4 hPa 14.1 m/s 63.0 mm 5.4° 973.4 hPa 13.8 m/s 5.4° 973.9 hPa 16.8 m/s 63.0 mm
04:00 5.0° 972.6 hPa 13.1 m/s 63.9 mm 5.0° 972.4 hPa 12.8 m/s 5.2° 975.0 hPa 16.4 m/s 63.9 mm
07:00 4.5° 971.7 hPa 12.1 m/s 64.8 mm 4.5° 971.4 hPa 11.8 m/s 5.1° 975.5 hPa 15.9 m/s 64.8 mm
10:00 4.7° 972.3 hPa 12.3 m/s 65.9 mm 4.8° 972.0 hPa 12.0 m/s 4.3° 975.2 hPa 15.1 m/s 65.9 mm
13:00 5.0° 972.9 hPa 12.6 m/s 66.9 mm 5.0° 972.6 hPa 12.2 m/s 4.7° 975.9 hPa 16.9 m/s 66.9 mm
16:00 4.9° 973.5 hPa 11.4 m/s 67.4 mm 5.0° 973.3 hPa 10.9 m/s 4.4° 975.6 hPa 16.2 m/s 67.4 mm
19:00 4.9° 974.2 hPa 10.3 m/s 68.4 mm 4.9° 974.0 hPa 9.7 m/s 4.6° 976.6 hPa 16.4 m/s 68.4 mm
22:00 4.9° 977.0 hPa 11.1 m/s 69.4 mm 4.9° 977.0 hPa 10.6 m/s 4.7° 978.1 hPa 17.2 m/s 69.4 mm
 07:56     17:31    Daglengte: 9:35 Zondag 23 Feb
01:00 4.9° 979.9 hPa 11.5 m/s 69.8 mm 4.9° 979.9 hPa 11.4 m/s 4.5° 979.4 hPa 12.6 m/s 69.8 mm
04:00 4.2° 983.1 hPa 9.8 m/s 71.0 mm 4.4° 983.3 hPa 10.2 m/s 1.5° 980.2 hPa 6.1 m/s 71.0 mm
07:00 3.7° 986.3 hPa 8.5 m/s 77.2 mm 3.9° 986.8 hPa 8.9 m/s 1.3° 981.0 hPa 4.2 m/s 77.2 mm
10:00 4.1° 987.7 hPa 8.2 m/s 78.2 mm 4.2° 988.0 hPa 8.6 m/s 3.0° 984.0 hPa 4.2 m/s 78.2 mm
13:00 4.4° 989.1 hPa 8.2 m/s 79.7 mm 4.4° 989.2 hPa 8.3 m/s 4.2° 988.1 hPa 6.8 m/s 79.7 mm
16:00 4.1° 991.1 hPa 7.8 m/s 82.7 mm 4.1° 991.0 hPa 7.7 m/s 4.7° 991.4 hPa 9.4 m/s 82.7 mm
19:00 3.6° 993.2 hPa 7.7 m/s 86.1 mm 3.7° 992.9 hPa 7.0 m/s 3.1° 996.1 hPa 14.9 m/s 86.1 mm
22:00 3.6° 995.4 hPa 8.1 m/s 87.1 mm 3.7° 994.6 hPa 7.8 m/s 2.5° 1003.4 hPa 11.7 m/s 87.1 mm
 07:52     17:34    Daglengte: 9:42 Maandag 24 Feb
01:00 3.5° 997.5 hPa 8.7 m/s 88.1 mm 3.6° 996.4 hPa 8.5 m/s 2.6° 1009.1 hPa 10.7 m/s 88.1 mm
04:00 3.2° 998.8 hPa 7.9 m/s 88.3 mm 3.3° 997.6 hPa 7.5 m/s 2.3° 1011.6 hPa 11.6 m/s 88.3 mm
07:00 2.9° 999.9 hPa 7.2 m/s 88.6 mm 3.0° 998.8 hPa 6.6 m/s 1.3° 1011.4 hPa 14.1 m/s 88.6 mm
10:00 3.3° 998.7 hPa 7.2 m/s 91.1 mm 3.5° 997.5 hPa 6.8 m/s 2.1° 1012.1 hPa 11.1 m/s 91.1 mm
13:00 3.8° 997.5 hPa 7.2 m/s 91.6 mm 3.9° 996.2 hPa 7.1 m/s 2.7° 1012.0 hPa 8.8 m/s 91.6 mm
16:00 3.5° 997.1 hPa 5.3 m/s 91.6 mm 3.5° 996.0 hPa 5.3 m/s 2.8° 1009.2 hPa 4.9 m/s 91.6 mm
19:00 3.1° 996.4 hPa 3.9 m/s 91.6 mm 3.2° 995.8 hPa 3.6 m/s 1.8° 1002.8 hPa 7.6 m/s 91.6 mm
22:00 2.7° 996.3 hPa 3.7 m/s 92.0 mm 2.9° 996.6 hPa 3.4 m/s 0.9° 993.0 hPa 7.6 m/s 92.0 mm
 07:49     17:37    Daglengte: 9:48 Dinsdag 25 Feb
01:00 2.3° 996.4 hPa 3.6 m/s 92.2 mm 2.5° 997.4 hPa 3.1 m/s 0.1° 985.1 hPa 9.2 m/s 92.2 mm
04:00 1.8° 993.5 hPa 4.0 m/s 92.2 mm 1.9° 994.8 hPa 3.4 m/s -0.4° 979.5 hPa 10.9 m/s 92.2 mm
07:00 1.3° 990.6 hPa 4.2 m/s 92.2 mm 1.4° 992.2 hPa 3.6 m/s 0.5° 973.3 hPa 10.5 m/s 92.2 mm
10:00 2.2° 991.6 hPa 3.6 m/s 92.2 mm 2.2° 993.8 hPa 3.0 m/s 1.6° 968.0 hPa 10.5 m/s 92.2 mm
13:00 3.2° 992.7 hPa 2.9 m/s 92.3 mm 3.0° 995.3 hPa 2.3 m/s 5.1° 963.8 hPa 9.0 m/s 92.3 mm
16:00 3.2° 990.2 hPa 4.5 m/s 93.0 mm 3.0° 993.0 hPa 4.4 m/s 4.8° 960.4 hPa 5.6 m/s 93.0 mm
19:00 3.0° 988.0 hPa 6.7 m/s 97.3 mm 3.0° 990.6 hPa 6.6 m/s 3.4° 959.2 hPa 7.6 m/s 97.3 mm
 07:46     17:40    Daglengte: 9:54 Woensdag 26 Feb
01:00 2.5° 991.5 hPa 3.7 m/s 102.5 mm 2.5° 994.0 hPa 3.5 m/s 2.4° 963.5 hPa 6.0 m/s 102.5 mm
07:00 1.1° 993.0 hPa 2.8 m/s 115.3 mm 0.9° 994.3 hPa 1.8 m/s 2.9° 978.6 hPa 13.9 m/s 115.3 mm
13:00 3.3° 992.0 hPa 4.1 m/s 117.1 mm 3.3° 992.2 hPa 3.4 m/s 2.9° 990.1 hPa 11.8 m/s 117.1 mm
19:00 2.1° 993.7 hPa 4.9 m/s 118.0 mm 2.1° 993.5 hPa 4.3 m/s 2.2° 996.2 hPa 11.6 m/s 118.0 mm
 07:42     17:43    Daglengte: 10:01 Donderdag 27 Feb
01:00 1.0° 994.1 hPa 4.1 m/s 120.2 mm 0.9° 993.3 hPa 3.9 m/s 1.8° 1003.0 hPa 6.5 m/s 120.2 mm
07:00 0.2° 992.6 hPa 4.0 m/s 121.3 mm 0.2° 991.5 hPa 3.8 m/s 0.0° 1004.2 hPa 6.2 m/s 121.3 mm
13:00 2.4° 989.8 hPa 3.3 m/s 121.3 mm 2.5° 989.0 hPa 3.3 m/s 0.9° 998.6 hPa 3.6 m/s 121.3 mm
19:00 1.6° 985.3 hPa 2.6 m/s 121.5 mm 1.7° 984.8 hPa 2.2 m/s 1.0° 990.5 hPa 7.2 m/s 121.5 mm
 07:39     17:46    Daglengte: 10:07 Vrijdag 28 Feb
01:00 0.2° 972.2 hPa 9.4 m/s 121.7 mm 0.2° 972.2 hPa 9.4 m/s 121.7 mm
07:00 3.2° 956.6 hPa 8.4 m/s 121.8 mm 3.2° 956.6 hPa 8.4 m/s 121.8 mm
13:00 4.5° 954.2 hPa 5.9 m/s 122.0 mm 4.5° 954.2 hPa 5.9 m/s 122.0 mm
19:00 -1.9° 992.8 hPa 0.8 m/s 1.1 mm
 07:36     17:48    Daglengte: 10:12 Zaterdag 29 Feb
01:00 -2.1° 993.8 hPa 0.9 m/s 1.1 mm
07:00 -1.7° 993.8 hPa 1.1 m/s 1.4 mm
13:00 0.6° 993.9 hPa 2.3 m/s 1.1 mm
19:00 -1.1° 995.6 hPa 2.6 m/s 1.6 mm
 07:32     17:51    Daglengte: 10:19 Zondag 01 Maa
01:00 -1.9° 997.3 hPa 2.7 m/s 1.0 mm
07:00 -2.5° 997.8 hPa 2.6 m/s 0.6 mm
13:00 0.4° 997.2 hPa 2.4 m/s 0.5 mm
19:00 -0.7° 997.6 hPa 2.2 m/s 1.3 mm
 07:29     17:54    Daglengte: 10:25 Maandag 02 Maa
01:00 -0.2° 999.2 hPa 2.8 m/s 1.6 mm
07:00 -0.5° 1000.3 hPa 2.6 m/s 1.8 mm
13:00 1.6° 1001.7 hPa 3.4 m/s 1.5 mm
19:00 -0.3° 1003.6 hPa 3.3 m/s 1.0 mm
 07:26     17:57    Daglengte: 10:31 Dinsdag 03 Maa
01:00 -0.1° 1004.9 hPa 3.0 m/s 1.0 mm
07:00 -0.1° 1004.5 hPa 3.2 m/s 1.0 mm
13:00 2.2° 1003.9 hPa 2.4 m/s 1.3 mm
19:00 0.9° 1003.6 hPa 3.0 m/s 1.8 mm
 07:22     18:00    Daglengte: 10:38 Woensdag 04 Maa
01:00 0.7° 1005.0 hPa 4.4 m/s 1.6 mm
07:00 0.6° 1005.9 hPa 4.4 m/s 1.1 mm
13:00 2.7° 1005.7 hPa 3.6 m/s 1.1 mm
19:00 1.3° 1005.4 hPa 2.4 m/s 1.4 mm
FMI Hirlam - 7.5 km EWN WRFDA - 12 km DWD ICON - 7 km GFS - 25 km Basiskaart






























































Updatetijd (Europe/Amsterdam) Resolutie Lengte Stap
FMI Hirlam 18:00, 00:00, 06:00, 12:00 7.5 km 49h 1h
EWN WRFDA 14:30, 20:30, 02:30, 08:30 12 km 73h 1h
DWD ICON 16:45, 22:45, 04:45, 10:45 7 km 75h 1h
GFS 18:30, 00:30, 06:30, 12:30 25 km 237h 3h
30+ mm
25-30 mm
20-25 mm
15-20 mm
10-15 mm
6-10 mm
4-6 mm
2-4 mm
1-2 mm
0.5-1 mm
0.2-0.5 mm
0.1-0.2 mm
30+ mm
25-30 mm
20-25 mm
15-20 mm
10-15 mm
6-10 mm
4-6 mm
2-4 mm
1-2 mm
0.5-1 mm
0.2-0.5 mm
0.1-0.2 mm
Sneeuwval
Natte sneeuw
Hagel
Vorst
30+ mm
25-30 mm
20-25 mm
15-20 mm
10-15 mm
6-10 mm
4-6 mm
2-4 mm
1-2 mm
0.5-1 mm
0.2-0.5 mm
0.1-0.2 mm
Sneeuwval
Natte sneeuw
Hagel
Vorst
Onweer
50 mm
40 mm
30 mm
26 mm
22 mm
18 mm
14 mm
10 mm
9 mm
8 mm
7 mm
6 mm
5 mm
4.5 mm
4 mm
3.5 mm
3 mm
2.5 mm
2 mm
1.5 mm
1 mm
0.8 mm
0.6 mm
0.4 mm
0.2 mm
0.05 mm
35°
30°
25°
20°
15°
10°
-5°
-10°
-15°
-20°
-25°
-30°
-35°
120> km/h
105 km/h
90 km/h
75 km/h
60 km/h
50 km/h
40 km/h
30 km/h
20 km/h
10 km/h
0 km/h
2600 J/kg
2400 J/kg
2200 J/kg
2000 J/kg
1800 J/kg
1600 J/kg
1400 J/kg
1200 J/kg
1000 J/kg
800 J/kg
600 J/kg
400 J/kg
200 J/kg
70 dBZ
65 dBZ
60 dBZ
55 dBZ
50 dBZ
45 dBZ
40 dBZ
35 dBZ
30 dBZ
25 dBZ
20 dBZ
15 dBZ
10 dBZ
5 dBZ
-1 K
-2 K
-3 K
-4 K
-5 K
-6 K
-7 K
-8 K
-9 K
950 m²/s²
900 m²/s²
850 m²/s²
800 m²/s²
750 m²/s²
700 m²/s²
650 m²/s²
600 m²/s²
550 m²/s²
500 m²/s²
450 m²/s²
400 m²/s²
350 m²/s²
300 m²/s²
250 m²/s²
200 m²/s²
150 m²/s²
100 m²/s²
46 m/s
44 m/s
42 m/s
40 m/s
38 m/s
36 m/s
34 m/s
32 m/s
30 m/s
28 m/s
26 m/s
24 m/s
22 m/s
20 m/s
16 m/s
12 m/s
8 m/s
4 m/s
30 m/s
28 m/s
26 m/s
24 m/s
22 m/s
20 m/s
18 m/s
16 m/s
14 m/s
12 m/s
10 m/s
8 m/s
6 m/s
4 m/s
2 m/s
3.0
2.8
2.6
2.4
2.2
2.0
1.8
1.6
1.4
1.2
1.0
0.8
0.6
0.4
0.2
15
14
13
12
11
10
9
8
7
6
5
4
3
2
1
90%
80%
70%
60%
50%
40%
30%
20%
10%
42
40
38
36
34
32
30
28
26
24
22
20
18
16
14
12
90+ cm
80-90 cm
70-80 cm
60-70 cm
50-60 cm
40-50 cm
30-40 cm
20-30 cm
10-20 cm
1-10 cm
Sneeuwval
Natte sneeuw
Regen
>120 mm
115 mm
110 mm
105 mm
100 mm
95 mm
90 mm
85 mm
80 mm
75 mm
70 mm
65 mm
60 mm
55 mm
50 mm
45 mm
45 mm
40 mm
35 mm
30 mm
25 mm
20 mm
15 mm
10 mm
5 mm
0.1 mm
960 hPa
880 hPa
800 hPa
720 hPa
640 hPa
560 hPa
584 gpdm
568 gpdm
552 gpdm
536 gpdm
520 gpdm
504 gpdm
488 gpdm
Extreem zwaar Noodweer Kans op onweer
15% 15% 5% 50% 15%

Dag




Kaart






35°
30°
25°
20°
15°
10°
-5°
-10°
-15°
-20°
-25°
-30°
-35°
120> km/h
105 km/h
90 km/h
75 km/h
60 km/h
50 km/h
40 km/h
30 km/h
20 km/h
10 km/h
0 km/h
Extreem zwaar Noodweer Kans op onweer
15% 15% 5% 50% 15%
>120 mm
115 mm
110 mm
105 mm
100 mm
95 mm
90 mm
85 mm
80 mm
75 mm
70 mm
65 mm
60 mm
55 mm
50 mm
45 mm
45 mm
40 mm
35 mm
30 mm
25 mm
20 mm
15 mm
10 mm
5 mm
0.1 mm
Onweer risico kaarten - De groene en gele kleur geeft de kans op onweer aan binnen 40 km van een punt. Oranje, rood en violet hebben hetzelfde niveau zoals je het ziet op estofex.org waaronder ook de kans op hagel en supercells.

dBZ - dBZ staat voor decibel ten opzichte van Z.

Cape - Convective available potential energy (CAPE), is de totale hoeveelheid energie die een luchtpakketje nodig heeft om zover mogelijk te stijgen in de atmosfeer.

K Index - K-Index wordt berekend door de Vertical Totals (VT) en het verschil tussen de 850 hPa temperatuur en de 700 hPa dauwpuntsdepressie (Tdd 700) bij elkaar op te tellen.

TT Index - Convectie index wordt gebruikt voor het voorspellen van zware buien of onweer.

WRF - The Weather Research and Forecasting (WRF) is een volgende generatie mesoscale numeriek weersvoorspelling systeem ontworpen om zowel de operationele planning als het atmosferisch onderzoek te dienen. WRF is a cooperatie tussen het National Center for Atmospheric Research (NCAR), National Centers for Environmental Pr